When you browse on this site, cookies collect data to enhance your experience and personalize the content and advertising you see.
Visit our Privacy Policy to learn more. By continuing to use the site, you agree to this use of cookies and data.
  • In France
  • List of Countries
  • For 7 days
  • Water Temperature
  • Satellite Maps
  • Weather Map
  • Weather Widgets
  • user-avatar
    Login

    Hourly Weather Yerevan

    Today, 24 January, Thursday

    Time Temperature Precipitation Wind Pressure Humidity
    00:00 -1°C° 0 mm 2 mps 693 mmHg 56%
    01:00 -1°C° 0 mm 2 mps 693 mmHg 56%
    02:00 -1°C° 0 mm 2 mps 693 mmHg 56%
    03:00 -1°C° 0 mm 2 mps 693 mmHg 56%
    04:00 -1°C° 0 mm 2 mps 693 mmHg 56%
    05:00 -2°C° 0 mm 2 mps 693 mmHg 55%
    06:00 -2°C° 0 mm 2 mps 693 mmHg 55%
    07:00 -1°C° 0 mm 2 mps 693 mmHg 52%
    08:00 +1°C° 0 mm 2 mps 693 mmHg 50%
    09:00 +2°C° 0 mm 2 mps 693 mmHg 47%
    10:00 +3°C° 0 mm 2 mps 693 mmHg 45%
    11:00 +3°C° 0 mm 3 mps 692 mmHg 43%
    12:00 +4°C° 0 mm 3 mps 692 mmHg 41%
    13:00 +5°C° 0 mm 3 mps 692 mmHg 41%
    14:00 +5°C° 0 mm 3 mps 691 mmHg 40%
    15:00 +5°C° 0 mm 3 mps 691 mmHg 40%
    16:00 +4°C° 0 mm 3 mps 691 mmHg 42%
    17:00 +3°C° 0 mm 3 mps 691 mmHg 45%
    18:00 +2°C° 0 mm 3 mps 691 mmHg 48%
    19:00 +2°C° 0 mm 3 mps 691 mmHg 49%
    20:00 +3°C° 0 mm 2 mps 691 mmHg 50%
    21:00 +2°C° 0 mm 2 mps 691 mmHg 51%
    22:00 +2°C° 0 mm 2 mps 691 mmHg 52%
    23:00 +2°C° 0 mm 2 mps 691 mmHg 52%

    Tomorrow, 25 January, Friday

    Time Temperature Precipitation Wind Pressure Humidity
    00:00 +2°C° 0 mm 2 mps 691 mmHg 52%
    01:00 +2°C° 0 mm 2 mps 691 mmHg 52%
    02:00 +2°C° 0 mm 2 mps 691 mmHg 52%
    03:00 +1°C° 0 mm 2 mps 690 mmHg 52%
    04:00 +1°C° 0 mm 2 mps 690 mmHg 53%
    05:00 +1°C° 0 mm 2 mps 690 mmHg 54%
    06:00 +1°C° 0 mm 2 mps 689 mmHg 55%
    07:00 +2°C° 0 mm 2 mps 689 mmHg 54%
    08:00 +3°C° 0 mm 2 mps 689 mmHg 52%
    09:00 +4°C° 0 mm 2 mps 690 mmHg 51%
    10:00 +4°C° 0.3 mm 2 mps 689 mmHg 54%
    11:00 +4°C° 0.3 mm 2 mps 689 mmHg 58%
    12:00 +4°C° 0.3 mm 2 mps 688 mmHg 61%
    13:00 +4°C° 0.2 mm 2 mps 688 mmHg 61%
    14:00 +4°C° 0.2 mm 2 mps 688 mmHg 61%
    15:00 +5°C° 0.2 mm 2 mps 688 mmHg 61%
    16:00 +4°C° 0 mm 2 mps 688 mmHg 63%
    17:00 +3°C° 0 mm 2 mps 689 mmHg 66%
    18:00 +3°C° 0 mm 2 mps 689 mmHg 68%
    19:00 +2°C° 0 mm 2 mps 690 mmHg 67%
    20:00 +2°C° 0 mm 2 mps 690 mmHg 67%
    21:00 +2°C° 0 mm 2 mps 690 mmHg 66%
    22:00 +2°C° 0 mm 2 mps 691 mmHg 66%
    23:00 +1°C° 0 mm 2 mps 691 mmHg 66%

    Day after tomorrow, 26 January, Saturday

    Time Temperature Precipitation Wind Pressure Humidity
    00:00 +1°C° 0 mm 2 mps 691 mmHg 65%
    01:00 +1°C° 0 mm 2 mps 691 mmHg 65%
    02:00 +1°C° 0 mm 2 mps 691 mmHg 64%
    03:00 +1°C° 0 mm 2 mps 690 mmHg 64%
    04:00 +1°C° 0 mm 2 mps 690 mmHg 63%
    05:00 +1°C° 0 mm 2 mps 690 mmHg 63%
    06:00 +1°C° 0 mm 2 mps 690 mmHg 62%
    07:00 +2°C° 0 mm 2 mps 690 mmHg 60%
    08:00 +3°C° 0 mm 2 mps 690 mmHg 57%
    09:00 +4°C° 0 mm 2 mps 691 mmHg 54%
    10:00 +5°C° 0 mm 2 mps 690 mmHg 51%
    11:00 +5°C° 0 mm 3 mps 690 mmHg 48%
    12:00 +7°C° 0 mm 3 mps 690 mmHg 44%
    13:00 +7°C° 0 mm 3 mps 689 mmHg 43%
    14:00 +8°C° 0 mm 3 mps 689 mmHg 42%
    15:00 +8°C° 0 mm 3 mps 689 mmHg 40%
    16:00 +7°C° 0 mm 3 mps 689 mmHg 44%
    17:00 +5°C° 0 mm 3 mps 689 mmHg 47%
    18:00 +4°C° 0 mm 3 mps 689 mmHg 50%
    19:00 +4°C° 0 mm 3 mps 689 mmHg 52%
    20:00 +4°C° 0 mm 3 mps 689 mmHg 54%
    21:00 +3°C° 0 mm 3 mps 689 mmHg 56%
    22:00 +3°C° 0.1 mm 3 mps 689 mmHg 59%
    23:00 +4°C° 0.1 mm 2 mps 689 mmHg 62%

    27 January, Sunday

    Time Temperature Precipitation Wind Pressure Humidity
    00:00 +4°C° 0.1 mm 2 mps 689 mmHg 65%
    01:00 +4°C° 0 mm 2 mps 689 mmHg 66%
    02:00 +4°C° 0 mm 2 mps 688 mmHg 68%
    03:00 +3°C° 0 mm 3 mps 688 mmHg 69%
    04:00 +3°C° 0.1 mm 3 mps 688 mmHg 69%
    05:00 +3°C° 0.1 mm 3 mps 687 mmHg 69%
    06:00 +3°C° 0.1 mm 3 mps 687 mmHg 69%
    07:00 +3°C° 0.3 mm 3 mps 687 mmHg 68%
    08:00 +4°C° 0.3 mm 3 mps 687 mmHg 68%
    09:00 +5°C° 0.3 mm 2 mps 687 mmHg 67%
    10:00 +7°C° 0.1 mm 3 mps 686 mmHg 63%
    11:00 +8°C° 0.1 mm 3 mps 686 mmHg 59%
    12:00 +9°C° 0.1 mm 3 mps 686 mmHg 55%
    13:00 +10°C° 0.1 mm 3 mps 685 mmHg 54%
    14:00 +11°C° 0.1 mm 3 mps 685 mmHg 52%
    15:00 +11°C° 0.1 mm 3 mps 684 mmHg 51%
    16:00 +10°C° 0.1 mm 3 mps 684 mmHg 55%
    17:00 +9°C° 0.1 mm 3 mps 684 mmHg 58%
    18:00 +8°C° 0.1 mm 3 mps 684 mmHg 61%
    19:00 +7°C° 0 mm 3 mps 685 mmHg 63%
    20:00 +7°C° 0 mm 3 mps 685 mmHg 64%
    21:00 +7°C° 0 mm 2 mps 685 mmHg 65%
    22:00 +7°C° 0 mm 2 mps 685 mmHg 66%
    23:00 +6°C° 0 mm 2 mps 685 mmHg 67%

    28 January, Monday

    Time Temperature Precipitation Wind Pressure Humidity
    00:00 +6°C° 0 mm 2 mps 685 mmHg 68%
    01:00 +5°C° 0.1 mm 3 mps 685 mmHg 68%
    02:00 +5°C° 0.1 mm 3 mps 685 mmHg 69%
    03:00 +5°C° 0.1 mm 3 mps 685 mmHg 70%
    04:00 +5°C° 0.1 mm 3 mps 685 mmHg 70%
    05:00 +5°C° 0.1 mm 3 mps 685 mmHg 70%
    06:00 +5°C° 0.1 mm 3 mps 686 mmHg 70%
    07:00 +5°C° 0 mm 3 mps 686 mmHg 67%
    08:00 +7°C° 0 mm 3 mps 686 mmHg 63%
    09:00 +7°C° 0 mm 3 mps 686 mmHg 60%
    10:00 +8°C° 0.1 mm 3 mps 685 mmHg 55%
    11:00 +9°C° 0.1 mm 3 mps 685 mmHg 50%
    12:00 +10°C° 0.1 mm 2 mps 684 mmHg 45%
    13:00 +10°C° 0.2 mm 3 mps 684 mmHg 46%
    14:00 +9°C° 0.2 mm 3 mps 684 mmHg 46%
    15:00 +9°C° 0.2 mm 3 mps 683 mmHg 46%
    16:00 +8°C° 0.3 mm 3 mps 684 mmHg 48%
    17:00 +8°C° 0.3 mm 2 mps 684 mmHg 49%
    18:00 +7°C° 0.3 mm 2 mps 684 mmHg 50%
    19:00 +7°C° 0.1 mm 2 mps 684 mmHg 50%
    20:00 +6°C° 0.1 mm 2 mps 685 mmHg 50%
    21:00 +6°C° 0.1 mm 2 mps 685 mmHg 50%
    22:00 +6°C° 0 mm 2 mps 685 mmHg 52%
    23:00 +5°C° 0 mm 2 mps 685 mmHg 53%

    29 January, Tuesday

    Time Temperature Precipitation Wind Pressure Humidity
    00:00 +5°C° 0 mm 2 mps 686 mmHg 54%
    01:00 +4°C° 0 mm 2 mps 686 mmHg 57%
    02:00 +5°C° 0 mm 1 mps 686 mmHg 59%
    03:00 +4°C° 0 mm 1 mps 687 mmHg 62%
    04:00 +4°C° 0 mm 1 mps 687 mmHg 62%
    05:00 +4°C° 0 mm 1 mps 687 mmHg 63%
    06:00 +3°C° 0 mm 1 mps 688 mmHg 63%
    07:00 +4°C° 0 mm 1 mps 688 mmHg 61%
    08:00 +5°C° 0 mm 1 mps 689 mmHg 59%
    09:00 +5°C° 0 mm 1 mps 690 mmHg 56%
    10:00 +6°C° 0 mm 1 mps 690 mmHg 52%
    11:00 +6°C° 0 mm 2 mps 690 mmHg 48%
    12:00 +7°C° 0 mm 2 mps 691 mmHg 45%
    13:00 +7°C° 0 mm 2 mps 691 mmHg 42%
    14:00 +8°C° 0 mm 2 mps 691 mmHg 40%
    15:00 +8°C° 0 mm 2 mps 691 mmHg 38%
    16:00 +7°C° 0 mm 2 mps 692 mmHg 41%
    17:00 +6°C° 0 mm 2 mps 693 mmHg 44%
    18:00 +5°C° 0 mm 2 mps 693 mmHg 47%
    19:00 +4°C° 0 mm 2 mps 694 mmHg 48%
    20:00 +4°C° 0 mm 2 mps 694 mmHg 49%
    21:00 +3°C° 0 mm 2 mps 695 mmHg 50%
    22:00 +3°C° 0 mm 2 mps 695 mmHg 50%
    23:00 +2°C° 0 mm 2 mps 695 mmHg 50%
    Show more